SCP
0 0 0 0 0 0 0 0 0 0 0 0 0 0 0 0 0 0 0 0 0 0 0 0 0 0 1 1 0 0 0 0 0 0 0 0 0 0 0 0 0 0 0 0 0 0 0
0 0 0 0 0 0 0 0 0 0 0 0 0 0 0 0 0 0 0 0 0 0 0 0 0 0 0 0 0 0 0 0 0 0 0 0 0 0 0 0 0 0 0 0 0 0 0
0 0 0 0 0 0 0 0 0 0 0 0 0 0 0 0 0 0 0 0 0 0 0 0 0 0 0 0 0 0 0 0 0 0 0 0 0 0 0 0 0 0 0 0 0 0 0
0 0 0 0 0 0 0 0 0 0 0 0 0 0 0 0 0 0 0 0 0 0 0 0 0 0 0 0 0 0 0 0 0 0 0 0 0 0 0 0 0 0 0 0 0 0 0
0 0 0 0 0 0 0 0 0 0 0 0 0 0 0 0 0 0 0 0 0 0 0 0 0 0 0 0 0 0 0 0 0 0 0 0 0 0 0 0 0 0 0 0 0 0 0
0 0 0 0 0 0 0 0 0 0 0 0 0 0 0 0 0 0 0 0 0 0 0 0 0 0 0 0 0 0 0 0 0 0 0 0 0 0 0 0 0 0 0 0 0 0 0
0 0 0 0 0 0 0 0 0 0 0 -0 0 0 0 0 0 1 1 0 0 0 0 0 0 0 0 0 0 0 0 0 0 0 0 -0 0 0 0 0 0 0 0 0 0 0 0
0 0 -0 -0 0 0 0 0 0 0 0 0 0 0 0 0 0 1 0 0 0 0 0 0 0 0 0 0 0 0 0 0 0 0 0 0 0 0 0 0 0 0 0 0 0 0 0
0 0 0 0 0 -0 0 0 0 0 0 0 0 0 0 0 0 0 0 0 0 0 0 0 0 0 0 0 0 0 0 0 0 0 0 0 0 0 0 0 0 0 0 0 0 0 0
0 0 0 0 0 0 -0 -0 0 0 0 0 0 0 0 0 0 0 0 0 0 0 0 0 0 0 0 0 0 0 0 0 0 0 0 0 0 0 0 0 0 0 0 0 0 0 0
-0 0 0 0 0 -0 0 0 0 0 0 0 0 0 0 1 0 0 0 0 0 0 0 0 0 0 0 0 0 0 0 0 0 0 0 0 -0 0 0 0 0 0 0 0 0 0 0
-0 -0 0 0 -0 0 0 0 0 0 0 0 0 0 0 0 0 0 0 0 0 0 0 0 0 0 0 0 0 0 0 0 0 0 0 0 0 0 0 0 0 0 0 0 0 0 0
0 -0 0 0 0 -0 0 -0 0 0 0 0 0 0 0 0 0 0 0 0 0 0 0 0 0 0 0 0 0 0 0 0 0 0 0 0 0 0 0 0 0 0 0 0 0 0 0
0 -0 -0 -0 0 0 0 0 0 0 0 0 -0 0 0 0 0 0 0 0 0 0 0 0 0 0 0 0 0 0 0 0 0 0 0 0 0 0 0 0 0 0 0 0 0 0 0
0 -0 -0 0 -0 0 0 0 0 0 0 0 0 0 0 0 0 0 0 0 0 0 0 0 0 0 0 0 0 0 0 0 0 0 0 0 0 0 0 0 0 0 0 0 0 0 0
-0 -0 0 0 0 0 0 0 0 0 0 0 0 0 0 0 0 0 0 0 0 0 0 0 0 0 0 0 0 0 0 0 0 0 0 0 0 0 0 0 0 0 0 0 0 0 0
-0 -0 -0 0 0 0 0 0 0 0 0 0 0 0 0 0 0 0 0 0 0 0 0 0 0 0 0 0 0 0 0 0 0 0 0 0 0 0 0 0 0 0 0 0 0 0 0
-0 -0 -0 0 0 0 0 0 0 0 0 0 0 0 0 0 0 0 0 0 0 0 0 0 0 0 0 0 0 0 0 0 0 0 0 0 0 0 0 0 0 0 0 0 0 0 0
0 -0 0 0 0 0 0 0 0 0 0 0 0 0 0 0 0 0 0 0 0 0 0 0 0 0 0 0 0 0 0 0 0 0 0 0 -0 0 0 0 0 0 0 0 0 0 0
-0 0 0 0 0 0 0 0 0 0 0 0 0 0 0 0 0 0 0 0 0 0 0 0 0 0 0 0 0 0 0 0 0 0 0 0 0 0 0 0 0 0 0 0 0 0 0
-0 0 0 0 0 0 0 0 0 0 0 0 0 0 0 0 0 0 0 0 0 0 0 0 0 0 0 0 0 0 0 0 0 0 0 0 0 0 -0 -0 -0 -0 0 0 0 0 0
-0 0 0 0 0 0 0 0 0 0 0 0 0 0 0 0 0 0 0 0 0 0 0 0 0 0 0 0 0 0 0 0 0 0 0 0 -0 0 0 0 -0 -0 0 0 0 0 0
0 0 0 0 0 0 0 0 0 0 0 0 0 0 0 0 0 0 0 0 0 0 0 0 0 0 0 0 0 0 0 0 0 0 0 0 0 0 0 0 0 0 0 0 0 0 0
0 0 0 0 0 0 0 0 0 0 0 0 0 0 0 0 0 0 0 0 0 0 0 0 0 0 0 0 0 0 0 0 0 0 0 0 0 0 -0 0 0 -0 0 0 0 0 0
0 0 0 0 -0 0 0 0 0 0 0 0 0 0 0 0 0 0 0 0 0 0 0 0 0 0 0 0 0 0 0 0 0 0 0 0 0 0 0 0 0 0 0 0 0 0 0
0 0 0 -0 -0 -0 0 0 0 0 0 0 0 0 0 0 0 0 0 0 0 0 0 0 0 0 0 0 0 0 0 -0 0 0 -0 0 0 0 0 0 0 -0 -0 0 0 0 0
-0 0 0 0 0 0 0 0 0 0 0 0 0 0 0 0 0 0 0 0 0 0 0 0 0 0 0 0 0 0 0 0 0 -0 0 0 0 0 0 0 0 -0 0 0 0 0 0
0 0 0 0 0 0 0 0 0 0 0 0 0 0 0 0 0 0 0 0 0 0 0 0 0 0 0 0 0 0 0 0 0 0 0 0 0 0 0 0 0 0 0 0 0 0 0
-0 -0 -0 -0 -0 -0 -0 -0 -0 0 0 0 0 0 0 0 0 0 0 0 0 0 0 0 0 0 0 0 0 0 0 0 0 0 0 0 0 0 0 0 0 0 0 0 0 0 0
Wind_Speed_500mb
70 71 73 73 77 77 78 75 84 84 83 82 84 79 75 72 69 64 65 64 58 57 53 50 51 50 52 50 38 10 30 39 57 62 40 24 16 14 10 15 11 5 6 19 22 22 22
73 75 76 77 76 78 82 84 82 84 84 84 83 84 79 76 75 68 66 63 61 57 62 55 48 49 60 53 38 49 4 48 49 67 63 58 23 19 11 12 15 15 22 8 10 20 16
76 77 78 77 79 81 88 91 86 81 81 83 84 87 85 81 76 72 67 64 62 55 57 63 55 47 49 46 33 41 52 24 47 55 56 49 50 17 10 6 11 7 4 6 18 12 10
76 77 79 81 82 84 85 85 91 95 84 81 82 98 95 85 81 75 69 65 60 53 50 53 50 48 27 51 38 39 59 40 38 38 39 46 47 49 19 1 4 7 2 6 5 22 12
70 72 75 79 82 86 90 87 84 87 97 87 88 90 92 89 84 79 71 65 57 51 44 45 45 27 21 46 59 37 46 64 54 50 43 41 37 22 22 8 3 5 8 9 9 29 7
60 63 75 68 73 85 88 87 88 86 88 106 90 88 86 96 91 82 71 63 51 46 46 43 33 15 33 57 60 65 41 45 46 47 37 32 14 15 9 17 19 12 11 6 8 5 4
58 69 66 56 77 80 88 88 86 84 86 87 106 90 78 103 97 85 75 67 56 32 60 25 35 9 7 40 45 52 58 49 35 37 22 38 18 25 36 30 8 11 10 13 6 9 8
60 62 71 66 65 84 80 87 90 92 83 83 96 93 88 92 90 90 89 94 97 37 36 26 4 37 5 39 25 48 67 45 36 35 34 13 38 45 10 18 17 6 7 7 7 5 11
66 68 69 70 61 65 90 96 93 85 81 89 98 97 86 107 100 99 109 94 78 55 18 30 16 45 19 34 15 43 60 59 17 31 34 39 10 32 30 19 28 26 20 6 7 5 6
66 70 77 77 76 80 89 91 102 93 90 91 97 92 91 109 115 115 108 86 67 55 9 10 17 18 21 15 8 25 58 30 10 33 14 25 26 23 17 16 26 36 23 17 13 7 10
73 77 80 87 87 79 90 108 92 106 92 88 86 93 98 120 108 116 117 91 69 38 13 14 20 14 26 18 14 22 45 44 29 14 15 23 25 34 21 32 21 9 12 18 12 8 5
81 86 91 92 85 76 81 102 102 106 96 89 83 107 79 128 111 106 118 100 60 11 12 14 26 26 18 28 7 20 25 39 6 2 15 17 2 10 34 19 35 18 8 4 6 9 18
94 102 102 100 90 81 89 116 122 108 94 88 88 103 95 128 100 120 120 86 10 11 5 22 17 33 35 14 16 12 18 32 19 21 25 37 20 5 9 18 13 29 22 10 11 10 20
102 107 107 105 105 86 69 96 120 115 101 88 81 89 107 124 110 135 121 24 11 6 14 7 22 35 40 14 14 13 28 28 24 16 8 24 17 31 24 33 19 44 32 11 17 15 16
105 129 94 100 112 91 73 80 106 110 98 83 77 75 86 104 142 139 96 27 17 16 17 20 35 31 20 25 14 15 16 18 23 30 23 24 28 5 21 15 33 18 23 18 8 4 3
70 45 38 37 82 79 82 101 107 99 93 84 81 70 62 143 139 126 35 17 9 10 21 30 12 15 13 33 17 30 25 20 14 41 30 7 11 16 15 14 15 26 20 14 7 16 14
27 38 47 56 72 77 101 108 99 93 91 86 57 30 92 130 131 84 32 7 11 13 27 14 11 12 11 18 20 18 16 8 21 18 30 2 12 3 23 26 38 16 21 15 9 7 11
17 31 46 47 84 97 106 101 93 93 91 92 45 8 126 145 30 13 19 18 17 10 10 10 11 12 15 15 16 22 21 11 27 29 33 27 7 10 22 5 32 37 20 23 13 14 9
31 50 57 78 96 96 96 85 90 92 105 78 35 49 113 131 17 10 8 9 10 9 6 7 8 6 5 14 10 11 15 17 27 25 15 17 11 16 8 10 3 27 38 34 29 2 29
50 60 69 70 82 90 87 80 81 90 94 80 32 15 27 33 18 27 25 8 13 12 9 11 10 10 9 7 4 13 11 7 16 22 38 28 9 16 22 10 6 26 40 51 47 31 44
55 63 70 72 73 71 77 79 81 101 109 69 28 11 19 12 14 12 12 9 23 11 7 8 8 6 14 8 6 7 1 6 3 2 10 12 8 9 31 35 25 19 32 41 51 54 35
57 63 68 71 72 69 79 74 85 91 64 66 22 20 30 8 53 30 9 3 11 5 10 3 14 12 9 13 10 9 11 7 7 9 7 9 18 23 43 38 31 45 47 36 50 51 51
61 63 66 74 76 104 113 90 80 68 63 39 66 68 37 15 24 17 7 10 11 16 6 19 18 11 5 8 7 5 9 12 11 4 2 7 1 8 43 12 24 35 56 60 59 51 52
72 61 71 103 109 102 82 65 48 50 54 94 72 52 26 9 14 9 10 9 11 6 15 6 19 9 10 16 8 5 14 25 26 25 26 10 10 5 27 11 32 35 32 48 55 67 58
120 117 111 106 105 97 79 66 59 55 58 80 60 50 20 10 12 19 20 18 23 17 8 10 9 18 19 11 7 11 9 8 18 34 37 39 19 11 15 22 23 36 32 24 47 72 64
89 81 100 94 91 87 82 77 70 67 60 67 45 38 43 20 2 33 15 14 8 7 7 3 13 15 11 5 7 9 7 11 10 8 15 30 32 20 16 13 20 49 22 42 34 47 61
81 72 73 63 61 63 69 69 64 57 43 39 50 42 49 22 13 28 9 11 21 9 7 6 7 7 15 6 6 7 9 10 7 13 7 7 15 38 40 33 19 41 19 31 31 44 59
61 57 63 65 68 65 63 63 64 61 48 34 55 39 34 25 25 16 20 28 26 28 8 12 9 3 4 4 7 8 8 12 9 18 13 22 15 18 24 19 38 17 17 35 33 82 34
59 57 53 49 42 34 28 28 27 27 26 24 40 37 39 26 21 22 22 23 23 26 26 21 5 11 13 6 4 6 4 4 3 11 11 25 30 22 17 17 11 28 15 6 13 26 22
Wind_Direction_500mb
262 260 257 256 250 254 251 250 247 248 244 242 237 234 230 226 227 226 225 220 220 215 217 212 215 205 201 207 216 268 201 199 221 209 205 205 203 199 190 184 168 211 238 219 214 189 193
263 261 258 255 254 253 253 252 248 246 242 241 238 233 230 226 225 222 222 219 217 214 213 216 211 205 202 217 223 220 130 202 213 218 222 222 228 252 242 208 178 212 223 236 222 231 210
261 258 259 255 253 252 249 248 246 243 243 235 236 234 229 222 222 219 219 216 214 213 210 213 213 209 207 222 224 214 217 211 206 211 202 201 200 185 250 192 225 164 184 272 246 226 236
259 255 256 255 253 252 249 249 245 243 244 234 234 235 225 218 217 216 215 211 208 206 205 207 206 212 223 221 214 208 214 217 220 220 223 214 218 220 211 181 66 154 97 220 238 168 232
257 255 252 251 251 250 249 247 244 242 240 240 232 231 218 215 212 212 209 204 200 199 198 198 195 188 225 224 220 208 209 216 212 215 214 218 225 183 176 160 95 268 215 211 293 195 135
263 260 259 254 251 249 247 247 245 240 236 236 236 232 238 208 206 205 203 194 185 182 186 180 188 165 230 218 219 208 204 208 194 197 201 211 227 212 153 184 203 214 217 231 223 195 187
261 266 253 263 255 253 242 243 242 239 234 234 235 234 234 209 202 196 191 172 162 177 189 187 187 170 80 210 221 211 207 201 196 185 191 202 211 229 203 190 148 156 182 192 219 229 187
267 269 278 269 276 243 243 243 243 235 231 232 227 232 223 197 195 190 188 178 180 200 172 176 178 200 237 172 168 201 201 200 202 209 190 216 208 218 181 185 207 146 184 224 257 174 191
268 269 268 277 259 260 247 245 236 233 227 230 218 223 219 206 193 187 189 182 173 157 140 203 203 190 160 181 193 198 194 202 196 214 202 204 187 196 193 195 206 216 218 188 222 328 230
271 272 271 271 271 268 255 238 229 226 226 222 213 217 219 200 184 181 179 174 168 158 99 189 195 211 186 145 235 213 202 198 234 216 204 240 247 209 180 195 198 219 193 213 232 279 264
272 270 269 268 271 270 243 236 231 224 222 218 209 206 209 197 178 177 173 165 159 154 162 166 169 191 193 187 149 182 203 197 207 181 167 217 177 208 217 212 185 205 152 190 195 202 327
273 270 269 264 264 259 246 231 228 219 219 216 209 205 204 182 181 172 171 158 149 116 209 165 148 173 149 190 213 146 171 196 189 41 254 248 334 201 215 202 191 154 110 137 170 207 245
274 271 264 264 256 248 248 232 221 214 211 206 204 208 216 180 166 169 165 151 123 166 239 166 171 177 172 160 175 147 179 188 184 181 217 231 217 262 159 188 163 177 168 211 219 191 241
275 274 269 256 253 239 237 202 204 206 205 202 201 202 202 180 164 161 154 151 149 179 191 188 149 160 193 142 219 158 164 198 213 191 195 220 231 202 204 209 197 191 185 202 205 188 246
273 282 264 256 234 217 213 197 190 196 197 194 196 195 178 167 162 156 149 176 179 175 167 137 137 166 179 187 158 170 192 207 207 199 186 188 231 177 176 190 186 191 199 205 81 60 44
258 238 225 193 184 200 200 190 184 188 187 182 174 170 182 156 157 154 155 154 111 152 129 136 140 179 164 178 162 187 179 206 211 199 210 227 239 208 174 160 252 195 154 191 179 186 228
212 224 217 199 191 191 176 179 182 181 181 179 165 164 165 155 152 156 169 153 116 137 118 133 139 121 157 167 173 187 209 287 209 175 191 177 228 277 146 194 194 186 200 198 161 189 187
171 174 168 185 179 170 167 174 174 174 168 172 149 169 160 151 144 157 158 145 115 136 95 100 98 114 158 147 162 191 207 220 203 157 202 183 233 214 212 189 214 206 206 208 206 217 238
124 138 143 134 152 161 166 171 170 173 167 147 148 117 150 149 148 130 122 97 101 116 106 121 118 125 135 149 139 192 176 239 252 178 174 167 215 258 323 244 336 217 214 207 219 51 215
123 130 139 134 150 159 165 164 165 172 169 143 142 123 125 133 142 143 131 111 111 77 96 88 110 96 117 126 61 171 176 249 241 175 216 167 195 213 236 257 124 214 211 214 209 220 238
127 129 134 141 151 155 157 162 162 163 154 146 127 107 125 123 140 114 97 107 126 113 72 100 41 154 138 128 112 104 122 333 304 29 194 186 257 221 248 256 262 247 234 222 224 224 224
130 130 133 137 143 152 162 163 161 153 160 142 110 141 84 75 135 119 115 219 117 119 118 80 115 179 157 143 157 140 135 205 243 4 200 192 241 253 263 257 246 247 250 260 231 233 237
124 128 129 134 134 125 134 124 138 149 149 118 126 120 119 111 144 122 164 162 114 121 14 157 153 130 167 189 159 209 226 237 238 108 10 317 46 204 265 252 256 252 237 235 231 243 227
125 127 126 123 112 114 125 115 110 139 161 134 123 115 105 83 112 119 114 92 131 126 129 139 142 105 151 123 104 178 224 235 221 232 208 239 254 312 273 292 257 256 249 234 233 235 228
98 95 102 107 105 97 95 106 112 115 127 123 117 106 94 91 111 106 104 106 93 80 80 100 116 146 143 66 54 17 345 355 241 229 211 207 209 230 258 252 294 297 264 215 217 243 235
100 93 96 94 97 97 97 98 102 106 117 122 105 108 120 123 275 124 101 118 115 120 26 147 152 187 144 95 92 151 217 219 296 322 196 219 217 202 217 245 244 256 271 212 216 244 235
99 101 98 106 104 90 91 92 93 92 95 121 93 112 124 104 127 139 124 152 133 132 121 141 139 113 162 128 147 169 236 197 231 197 220 178 210 217 226 237 266 264 198 188 204 240 239
86 96 106 101 105 105 105 104 102 100 93 116 81 92 122 104 123 136 135 144 141 148 139 164 88 6 133 177 153 225 178 226 214 217 207 218 213 220 224 226 246 174 177 194 234 242 293
77 81 83 84 90 105 108 104 101 102 99 93 93 98 104 103 137 152 148 159 169 157 131 158 112 144 173 191 229 250 312 261 200 266 211 242 227 231 206 218 256 221 282 75 312 350 255
Wind_Speed_850mb
70 71 73 73 77 77 78 75 84 84 83 82 84 79 75 72 69 64 65 64 58 57 53 50 51 50 52 50 38 10 30 39 57 62 40 24 16 14 10 15 11 5 6 19 22 22 22
73 75 76 77 76 78 82 84 82 84 84 84 83 84 79 76 75 68 66 63 61 57 62 55 48 49 60 53 38 49 4 48 49 67 63 58 23 19 11 12 15 15 22 8 10 20 16
76 77 78 77 79 81 88 91 86 81 81 83 84 87 85 81 76 72 67 64 62 55 57 63 55 47 49 46 33 41 52 24 47 55 56 49 50 17 10 6 11 7 4 6 18 12 10
76 77 79 81 82 84 85 85 91 95 84 81 82 98 95 85 81 75 69 65 60 53 50 53 50 48 27 51 38 39 59 40 38 38 39 46 47 49 19 1 4 7 2 6 5 22 12
70 72 75 79 82 86 90 87 84 87 97 87 88 90 92 89 84 79 71 65 57 51 44 45 45 27 21 46 59 37 46 64 54 50 43 41 37 22 22 8 3 5 8 9 9 29 7
60 63 75 68 73 85 88 87 88 86 88 106 90 88 86 96 91 82 71 63 51 46 46 43 33 15 33 57 60 65 41 45 46 47 37 32 14 15 9 17 19 12 11 6 8 5 4
58 69 66 56 77 80 88 88 86 84 86 87 106 90 78 103 97 85 75 67 56 32 60 25 35 9 7 40 45 52 58 49 35 37 22 38 18 25 36 30 8 11 10 13 6 9 8
60 62 71 66 65 84 80 87 90 92 83 83 96 93 88 92 90 90 89 94 97 37 36 26 4 37 5 39 25 48 67 45 36 35 34 13 38 45 10 18 17 6 7 7 7 5 11
66 68 69 70 61 65 90 96 93 85 81 89 98 97 86 107 100 99 109 94 78 55 18 30 16 45 19 34 15 43 60 59 17 31 34 39 10 32 30 19 28 26 20 6 7 5 6
66 70 77 77 76 80 89 91 102 93 90 91 97 92 91 109 115 115 108 86 67 55 9 10 17 18 21 15 8 25 58 30 10 33 14 25 26 23 17 16 26 36 23 17 13 7 10
73 77 80 87 87 79 90 108 92 106 92 88 86 93 98 120 108 116 117 91 69 38 13 14 20 14 26 18 14 22 45 44 29 14 15 23 25 34 21 32 21 9 12 18 12 8 5
81 86 91 92 85 76 81 102 102 106 96 89 83 107 79 128 111 106 118 100 60 11 12 14 26 26 18 28 7 20 25 39 6 2 15 17 2 10 34 19 35 18 8 4 6 9 18
94 102 102 100 90 81 89 116 122 108 94 88 88 103 95 128 100 120 120 86 10 11 5 22 17 33 35 14 16 12 18 32 19 21 25 37 20 5 9 18 13 29 22 10 11 10 20
102 107 107 105 105 86 69 96 120 115 101 88 81 89 107 124 110 135 121 24 11 6 14 7 22 35 40 14 14 13 28 28 24 16 8 24 17 31 24 33 19 44 32 11 17 15 16
105 129 94 100 112 91 73 80 106 110 98 83 77 75 86 104 142 139 96 27 17 16 17 20 35 31 20 25 14 15 16 18 23 30 23 24 28 5 21 15 33 18 23 18 8 4 3
70 45 38 37 82 79 82 101 107 99 93 84 81 70 62 143 139 126 35 17 9 10 21 30 12 15 13 33 17 30 25 20 14 41 30 7 11 16 15 14 15 26 20 14 7 16 14
27 38 47 56 72 77 101 108 99 93 91 86 57 30 92 130 131 84 32 7 11 13 27 14 11 12 11 18 20 18 16 8 21 18 30 2 12 3 23 26 38 16 21 15 9 7 11
17 31 46 47 84 97 106 101 93 93 91 92 45 8 126 145 30 13 19 18 17 10 10 10 11 12 15 15 16 22 21 11 27 29 33 27 7 10 22 5 32 37 20 23 13 14 9
31 50 57 78 96 96 96 85 90 92 105 78 35 49 113 131 17 10 8 9 10 9 6 7 8 6 5 14 10 11 15 17 27 25 15 17 11 16 8 10 3 27 38 34 29 2 29
50 60 69 70 82 90 87 80 81 90 94 80 32 15 27 33 18 27 25 8 13 12 9 11 10 10 9 7 4 13 11 7 16 22 38 28 9 16 22 10 6 26 40 51 47 31 44
55 63 70 72 73 71 77 79 81 101 109 69 28 11 19 12 14 12 12 9 23 11 7 8 8 6 14 8 6 7 1 6 3 2 10 12 8 9 31 35 25 19 32 41 51 54 35
57 63 68 71 72 69 79 74 85 91 64 66 22 20 30 8 53 30 9 3 11 5 10 3 14 12 9 13 10 9 11 7 7 9 7 9 18 23 43 38 31 45 47 36 50 51 51
61 63 66 74 76 104 113 90 80 68 63 39 66 68 37 15 24 17 7 10 11 16 6 19 18 11 5 8 7 5 9 12 11 4 2 7 1 8 43 12 24 35 56 60 59 51 52
72 61 71 103 109 102 82 65 48 50 54 94 72 52 26 9 14 9 10 9 11 6 15 6 19 9 10 16 8 5 14 25 26 25 26 10 10 5 27 11 32 35 32 48 55 67 58
120 117 111 106 105 97 79 66 59 55 58 80 60 50 20 10 12 19 20 18 23 17 8 10 9 18 19 11 7 11 9 8 18 34 37 39 19 11 15 22 23 36 32 24 47 72 64
89 81 100 94 91 87 82 77 70 67 60 67 45 38 43 20 2 33 15 14 8 7 7 3 13 15 11 5 7 9 7 11 10 8 15 30 32 20 16 13 20 49 22 42 34 47 61
81 72 73 63 61 63 69 69 64 57 43 39 50 42 49 22 13 28 9 11 21 9 7 6 7 7 15 6 6 7 9 10 7 13 7 7 15 38 40 33 19 41 19 31 31 44 59
61 57 63 65 68 65 63 63 64 61 48 34 55 39 34 25 25 16 20 28 26 28 8 12 9 3 4 4 7 8 8 12 9 18 13 22 15 18 24 19 38 17 17 35 33 82 34
59 57 53 49 42 34 28 28 27 27 26 24 40 37 39 26 21 22 22 23 23 26 26 21 5 11 13 6 4 6 4 4 3 11 11 25 30 22 17 17 11 28 15 6 13 26 22
Wind_Direction_850mb
262 260 257 256 250 254 251 250 247 248 244 242 237 234 230 226 227 226 225 220 220 215 217 212 215 205 201 207 216 268 201 199 221 209 205 205 203 199 190 184 168 211 238 219 214 189 193
263 261 258 255 254 253 253 252 248 246 242 241 238 233 230 226 225 222 222 219 217 214 213 216 211 205 202 217 223 220 130 202 213 218 222 222 228 252 242 208 178 212 223 236 222 231 210
261 258 259 255 253 252 249 248 246 243 243 235 236 234 229 222 222 219 219 216 214 213 210 213 213 209 207 222 224 214 217 211 206 211 202 201 200 185 250 192 225 164 184 272 246 226 236
259 255 256 255 253 252 249 249 245 243 244 234 234 235 225 218 217 216 215 211 208 206 205 207 206 212 223 221 214 208 214 217 220 220 223 214 218 220 211 181 66 154 97 220 238 168 232
257 255 252 251 251 250 249 247 244 242 240 240 232 231 218 215 212 212 209 204 200 199 198 198 195 188 225 224 220 208 209 216 212 215 214 218 225 183 176 160 95 268 215 211 293 195 135
263 260 259 254 251 249 247 247 245 240 236 236 236 232 238 208 206 205 203 194 185 182 186 180 188 165 230 218 219 208 204 208 194 197 201 211 227 212 153 184 203 214 217 231 223 195 187
261 266 253 263 255 253 242 243 242 239 234 234 235 234 234 209 202 196 191 172 162 177 189 187 187 170 80 210 221 211 207 201 196 185 191 202 211 229 203 190 148 156 182 192 219 229 187
267 269 278 269 276 243 243 243 243 235 231 232 227 232 223 197 195 190 188 178 180 200 172 176 178 200 237 172 168 201 201 200 202 209 190 216 208 218 181 185 207 146 184 224 257 174 191
268 269 268 277 259 260 247 245 236 233 227 230 218 223 219 206 193 187 189 182 173 157 140 203 203 190 160 181 193 198 194 202 196 214 202 204 187 196 193 195 206 216 218 188 222 328 230
271 272 271 271 271 268 255 238 229 226 226 222 213 217 219 200 184 181 179 174 168 158 99 189 195 211 186 145 235 213 202 198 234 216 204 240 247 209 180 195 198 219 193 213 232 279 264
272 270 269 268 271 270 243 236 231 224 222 218 209 206 209 197 178 177 173 165 159 154 162 166 169 191 193 187 149 182 203 197 207 181 167 217 177 208 217 212 185 205 152 190 195 202 327
273 270 269 264 264 259 246 231 228 219 219 216 209 205 204 182 181 172 171 158 149 116 209 165 148 173 149 190 213 146 171 196 189 41 254 248 334 201 215 202 191 154 110 137 170 207 245
274 271 264 264 256 248 248 232 221 214 211 206 204 208 216 180 166 169 165 151 123 166 239 166 171 177 172 160 175 147 179 188 184 181 217 231 217 262 159 188 163 177 168 211 219 191 241
275 274 269 256 253 239 237 202 204 206 205 202 201 202 202 180 164 161 154 151 149 179 191 188 149 160 193 142 219 158 164 198 213 191 195 220 231 202 204 209 197 191 185 202 205 188 246
273 282 264 256 234 217 213 197 190 196 197 194 196 195 178 167 162 156 149 176 179 175 167 137 137 166 179 187 158 170 192 207 207 199 186 188 231 177 176 190 186 191 199 205 81 60 44
258 238 225 193 184 200 200 190 184 188 187 182 174 170 182 156 157 154 155 154 111 152 129 136 140 179 164 178 162 187 179 206 211 199 210 227 239 208 174 160 252 195 154 191 179 186 228
212 224 217 199 191 191 176 179 182 181 181 179 165 164 165 155 152 156 169 153 116 137 118 133 139 121 157 167 173 187 209 287 209 175 191 177 228 277 146 194 194 186 200 198 161 189 187
171 174 168 185 179 170 167 174 174 174 168 172 149 169 160 151 144 157 158 145 115 136 95 100 98 114 158 147 162 191 207 220 203 157 202 183 233 214 212 189 214 206 206 208 206 217 238
124 138 143 134 152 161 166 171 170 173 167 147 148 117 150 149 148 130 122 97 101 116 106 121 118 125 135 149 139 192 176 239 252 178 174 167 215 258 323 244 336 217 214 207 219 51 215
123 130 139 134 150 159 165 164 165 172 169 143 142 123 125 133 142 143 131 111 111 77 96 88 110 96 117 126 61 171 176 249 241 175 216 167 195 213 236 257 124 214 211 214 209 220 238
127 129 134 141 151 155 157 162 162 163 154 146 127 107 125 123 140 114 97 107 126 113 72 100 41 154 138 128 112 104 122 333 304 29 194 186 257 221 248 256 262 247 234 222 224 224 224
130 130 133 137 143 152 162 163 161 153 160 142 110 141 84 75 135 119 115 219 117 119 118 80 115 179 157 143 157 140 135 205 243 4 200 192 241 253 263 257 246 247 250 260 231 233 237
124 128 129 134 134 125 134 124 138 149 149 118 126 120 119 111 144 122 164 162 114 121 14 157 153 130 167 189 159 209 226 237 238 108 10 317 46 204 265 252 256 252 237 235 231 243 227
125 127 126 123 112 114 125 115 110 139 161 134 123 115 105 83 112 119 114 92 131 126 129 139 142 105 151 123 104 178 224 235 221 232 208 239 254 312 273 292 257 256 249 234 233 235 228
98 95 102 107 105 97 95 106 112 115 127 123 117 106 94 91 111 106 104 106 93 80 80 100 116 146 143 66 54 17 345 355 241 229 211 207 209 230 258 252 294 297 264 215 217 243 235
100 93 96 94 97 97 97 98 102 106 117 122 105 108 120 123 275 124 101 118 115 120 26 147 152 187 144 95 92 151 217 219 296 322 196 219 217 202 217 245 244 256 271 212 216 244 235
99 101 98 106 104 90 91 92 93 92 95 121 93 112 124 104 127 139 124 152 133 132 121 141 139 113 162 128 147 169 236 197 231 197 220 178 210 217 226 237 266 264 198 188 204 240 239
86 96 106 101 105 105 105 104 102 100 93 116 81 92 122 104 123 136 135 144 141 148 139 164 88 6 133 177 153 225 178 226 214 217 207 218 213 220 224 226 246 174 177 194 234 242 293
77 81 83 84 90 105 108 104 101 102 99 93 93 98 104 103 137 152 148 159 169 157 131 158 112 144 173 191 229 250 312 261 200 266 211 242 227 231 206 218 256 221 282 75 312 350 255